Location: B?ogocice
(50.2413°N, 20.2361°E)
Time: 17:48:33
(UTC+00:00)

SAR-Lupe-4 - Pass Details

Date: 18 September 2024
Orbit: 476 x 483 km, 98.1° (Epoch: 03 October)

Event Time Altitude Azimuth Distance (km) Brightness Sun altitude
Rises 01:18:51 0° 29° (NNE) 2,554 8.3 -27.1°
Reaches altitude 10° 01:21:33 10° 52° (NE) 1,666 7.3 -26.8°
Maximum altitude 01:23:52 16° 92° (E) 1,319 6.2 -26.5°
Enters shadow 01:25:05 14° 116° (ESE) 1,421 6.1 -26.4°
